Location: Unspecified
(43.4680°N, 87.1740°E)
Time: 04:46:04
(UTC+00:00)

Helios 1A Rocket - Pass Details

Date: 17 April 2021
Orbit: 563 x 585 km, 98.3° (Epoch: 16 May)

Event Time Altitude Azimuth Distance (km) Brightness Sun altitude
Rises 13:34:25 0° 169° (S) 2,758 6.1 -7.3°
Reaches altitude 10° 13:36:32 10° 171° (S) 1,869 5.2 -7.6°
Maximum altitude 13:40:35 75° 256° (WSW) 600 3.1 -8.3°
Drops below altitude 10° 13:44:42 10° 343° (NNW) 1,898 6.2 -9.0°
Sets 13:46:52 0° 345° (NNW) 2,805 7.0 -9.4°
